TimeCDT,TemperatureF,Dew PointF,Humidity,Sea Level PressureIn,VisibilityMPH,Wind Direction,Wind SpeedMPH,Gust SpeedMPH,PrecipitationIn,Events,Conditions,WindDirDegrees,DateUTC
12:15 AM,53.6,53.6,100,29.90,10.0,North,5.8,-,N/A,,Partly Cloudy,360,2013-06-17 05:15:00
12:35 AM,53.6,51.8,94,29.90,10.0,North,6.9,-,N/A,,Partly Cloudy,10,2013-06-17 05:35:00
12:55 AM,53.6,53.6,100,29.91,10.0,North,8.1,-,N/A,,Clear,10,2013-06-17 05:55:00
1:15 AM,53.6,53.6,100,29.92,10.0,North,4.6,-,N/A,,Scattered Clouds,350,2013-06-17 06:15:00
1:35 AM,55.4,55.4,100,29.92,10.0,North,8.1,-,N/A,,Mostly Cloudy,350,2013-06-17 06:35:00
1:55 AM,53.6,53.6,100,29.92,10.0,North,8.1,-,N/A,,Mostly Cloudy,350,2013-06-17 06:55:00
2:15 AM,53.6,53.6,100,29.92,10.0,North,9.2,-,N/A,,Mostly Cloudy,360,2013-06-17 07:15:00
2:35 AM,53.6,53.6,100,29.93,10.0,North,8.1,-,N/A,,Scattered Clouds,350,2013-06-17 07:35:00
2:55 AM,53.6,53.6,100,29.94,9.0,North,6.9,-,N/A,,Clear,350,2013-06-17 07:55:00
3:15 AM,50.0,50.0,100,29.94,10.0,NNW,5.8,-,N/A,,Clear,330,2013-06-17 08:15:00
3:35 AM,53.6,53.6,100,29.94,10.0,NNW,8.1,-,N/A,,Clear,340,2013-06-17 08:35:00
3:55 AM,53.6,53.6,100,29.94,9.0,North,8.1,-,N/A,,Partly Cloudy,350,2013-06-17 08:55:00
4:15 AM,53.6,53.6,100,29.94,10.0,NNW,8.1,-,N/A,,Scattered Clouds,340,2013-06-17 09:15:00
4:35 AM,55.4,55.4,100,29.95,10.0,North,10.4,-,N/A,,Overcast,350,2013-06-17 09:35:00
4:55 AM,55.4,55.4,100,29.94,10.0,North,12.7,-,N/A,,Overcast,360,2013-06-17 09:55:00
5:15 AM,55.4,55.4,100,29.95,10.0,North,11.5,-,N/A,,Overcast,350,2013-06-17 10:15:00
5:35 AM,55.4,55.4,100,29.97,10.0,North,11.5,-,N/A,,Overcast,360,2013-06-17 10:35:00
5:55 AM,57.2,57.2,100,29.97,10.0,North,10.4,-,N/A,,Overcast,10,2013-06-17 10:55:00
6:15 AM,57.2,57.2,100,29.98,10.0,North,9.2,-,N/A,,Overcast,10,2013-06-17 11:15:00
6:35 AM,57.2,57.2,100,29.98,10.0,North,9.2,16.1,N/A,,Overcast,10,2013-06-17 11:35:00
6:55 AM,57.2,57.2,100,29.98,10.0,North,15.0,18.4,N/A,,Overcast,360,2013-06-17 11:55:00
7:15 AM,57.2,57.2,100,29.99,10.0,North,13.8,-,N/A,,Overcast,10,2013-06-17 12:15:00
7:35 AM,57.2,57.2,100,30.00,10.0,North,11.5,-,N/A,,Overcast,10,2013-06-17 12:35:00
7:55 AM,57.2,57.2,100,30.01,10.0,North,10.4,-,N/A,,Overcast,10,2013-06-17 12:55:00
8:15 AM,57.2,57.2,100,30.01,10.0,North,12.7,-,N/A,,Overcast,10,2013-06-17 13:15:00
8:35 AM,57.2,57.2,100,30.02,10.0,North,10.4,-,N/A,,Overcast,350,2013-06-17 13:35:00
8:55 AM,57.2,57.2,100,30.03,10.0,North,10.4,-,N/A,,Overcast,10,2013-06-17 13:55:00
9:15 AM,57.2,57.2,100,30.04,10.0,North,11.5,17.3,N/A,,Overcast,360,2013-06-17 14:15:00
9:35 AM,57.2,57.2,100,30.04,10.0,North,9.2,-,N/A,,Overcast,10,2013-06-17 14:35:00
9:55 AM,59.0,59.0,100,30.04,10.0,North,11.5,-,N/A,,Overcast,350,2013-06-17 14:55:00
10:15 AM,59.0,57.2,94,30.04,10.0,North,11.5,-,N/A,,Overcast,10,2013-06-17 15:15:00
10:35 AM,62.6,57.2,82,30.04,10.0,North,10.4,-,N/A,,Overcast,360,2013-06-17 15:35:00
10:55 AM,62.6,57.2,82,30.04,10.0,North,10.4,17.3,N/A,,Overcast,360,2013-06-17 15:55:00
11:15 AM,62.6,57.2,82,30.05,10.0,NNE,9.2,-,N/A,,Overcast,30,2013-06-17 16:15:00
11:35 AM,64.4,57.2,77,30.05,10.0,North,10.4,-,N/A,,Overcast,10,2013-06-17 16:35:00
11:55 AM,64.4,55.4,73,30.06,10.0,North,11.5,17.3,N/A,,Mostly Cloudy,10,2013-06-17 16:55:00
12:15 PM,64.4,55.4,73,30.06,10.0,NNE,9.2,-,N/A,,Overcast,20,2013-06-17 17:15:00
12:35 PM,66.2,55.4,68,30.06,10.0,NNE,6.9,-,N/A,,Mostly Cloudy,30,2013-06-17 17:35:00
12:55 PM,66.2,55.4,68,30.06,10.0,North,6.9,-,N/A,,Mostly Cloudy,10,2013-06-17 17:55:00
1:15 PM,66.2,55.4,68,30.06,10.0,NE,9.2,-,N/A,,Mostly Cloudy,40,2013-06-17 18:15:00
1:35 PM,66.2,53.6,64,30.06,10.0,NNE,9.2,-,N/A,,Mostly Cloudy,20,2013-06-17 18:35:00
1:55 PM,68.0,53.6,60,30.06,10.0,NNE,6.9,-,N/A,,Mostly Cloudy,30,2013-06-17 18:55:00
2:15 PM,68.0,51.8,56,30.05,10.0,NNW,11.5,17.3,N/A,,Scattered Clouds,340,2013-06-17 19:15:00
2:35 PM,66.2,51.8,60,30.06,10.0,NNW,10.4,-,N/A,,Mostly Cloudy,340,2013-06-17 19:35:00
2:55 PM,66.2,50.0,56,30.06,10.0,North,10.4,-,N/A,,Overcast,10,2013-06-17 19:55:00
3:15 PM,66.2,51.8,60,30.06,10.0,North,5.8,-,N/A,,Overcast,10,2013-06-17 20:15:00
3:35 PM,66.2,53.6,64,30.06,10.0,North,11.5,-,N/A,,Mostly Cloudy,10,2013-06-17 20:35:00
3:55 PM,68.0,51.8,56,30.05,10.0,North,4.6,-,N/A,,Mostly Cloudy,350,2013-06-17 20:55:00
4:15 PM,66.2,53.6,64,30.06,10.0,NW,13.8,-,N/A,,Mostly Cloudy,310,2013-06-17 21:15:00
4:35 PM,64.4,53.6,68,30.06,10.0,NW,13.8,-,N/A,,Overcast,320,2013-06-17 21:35:00
4:55 PM,64.4,53.6,68,30.06,10.0,NW,11.5,-,N/A,,Overcast,310,2013-06-17 21:55:00
5:15 PM,66.2,53.6,64,30.06,10.0,NNW,9.2,-,N/A,,Overcast,340,2013-06-17 22:15:00
5:35 PM,66.2,51.8,60,30.06,10.0,NW,9.2,-,N/A,,Overcast,310,2013-06-17 22:35:00
5:55 PM,68.0,53.6,60,30.06,10.0,North,5.8,-,N/A,,Overcast,350,2013-06-17 22:55:00
6:15 PM,66.2,50.0,56,30.06,10.0,North,6.9,-,N/A,,Mostly Cloudy,360,2013-06-17 23:15:00
6:35 PM,66.2,48.2,52,30.06,10.0,North,6.9,-,N/A,,Overcast,10,2013-06-17 23:35:00
6:55 PM,66.2,48.2,52,30.06,10.0,North,4.6,-,N/A,,Overcast,10,2013-06-17 23:55:00
7:15 PM,66.2,53.6,64,30.06,10.0,West,8.1,-,N/A,,Overcast,280,2013-06-18 00:15:00
7:35 PM,64.4,55.4,73,30.06,10.0,West,9.2,-,N/A,,Overcast,280,2013-06-18 00:35:00
7:55 PM,64.4,57.2,77,30.06,10.0,West,10.4,-,N/A,,Overcast,260,2013-06-18 00:55:00
8:15 PM,64.4,57.2,77,30.06,10.0,West,10.4,-,N/A,,Overcast,270,2013-06-18 01:15:00
8:35 PM,64.4,57.2,77,30.05,10.0,West,8.1,-,N/A,,Scattered Clouds,280,2013-06-18 01:35:00
8:55 PM,62.6,55.4,77,30.06,10.0,WNW,5.8,-,N/A,,Clear,300,2013-06-18 01:55:00
9:15 PM,60.8,55.4,82,30.06,10.0,WNW,5.8,-,N/A,,Clear,300,2013-06-18 02:15:00
9:35 PM,59.0,53.6,82,30.06,10.0,WNW,5.8,-,N/A,,Clear,290,2013-06-18 02:35:00
9:55 PM,55.4,51.8,88,30.07,10.0,WNW,6.9,-,N/A,,Clear,300,2013-06-18 02:55:00
10:15 PM,55.4,50.0,82,30.08,10.0,NW,4.6,-,N/A,,Clear,310,2013-06-18 03:15:00
10:35 PM,55.4,50.0,82,30.08,10.0,WNW,4.6,-,N/A,,Mostly Cloudy,300,2013-06-18 03:35:00
10:55 PM,55.4,50.0,82,30.09,10.0,Calm,Calm,-,N/A,,Scattered Clouds,0,2013-06-18 03:55:00
11:15 PM,53.6,50.0,88,30.09,10.0,NNW,3.5,-,N/A,,Scattered Clouds,330,2013-06-18 04:15:00
11:35 PM,51.8,51.8,100,30.08,10.0,NNW,4.6,-,N/A,,Partly Cloudy,330,2013-06-18 04:35:00
11:55 PM,51.8,51.8,100,30.09,10.0,North,4.6,-,N/A,,Clear,350,2013-06-18 04:55:00